New Orleans NAS, LA

1:40 AM CDT on March 24, 2017 (GMT -0500)
New Orleans Naval Air Station

Weather History for KNBG - November, 2012

Change the Weather History Date:

Wednesday, November 7, 2012

  Actual Average Record
Temperature  
Mean Temperature 56 °F -  
Max Temperature 68 °F 71 °F 81 °F (1996)
Min Temperature 44 °F 54 °F 39 °F (2010)
Degree Days  
Heating Degree Days 9    
Growing Degree Days 6 (Base 50)    
Moisture  
Dew Point 41 °F    
Average Humidity 65    
Maximum Humidity 90    
Minimum Humidity 32    
Precipitation  
Precipitation 0.00 in - - ()
Sea Level Pressure  
Sea Level Pressure 30.09 in    
Wind  
Wind Speed 2 mph (North)    
Max Wind Speed 10 mph    
Max Gust Speed 21 mph    
Visibility 7 miles    
Events      
Averages and records for this station are not official NWS values.
T = Trace of Precipitation, MM = Missing Value Source: NWS Daily Summary

Daily Weather History Graph

Daily Weather History Graph

Search for Another Location

Airport or City:

Trip Planner

Search our weather history database for the weather conditions in past years. The results will help you decide how hot, cold, wet, or windy it might be!

Date:

Astronomy

Nov. 07, 2012 Rise Set
Actual Time 6:18 AM CST 5:08 PM CST
Civil Twilight 5:53 AM CST 5:33 PM CST
Nautical Twilight 5:25 AM CST 6:01 PM CST
Astronomical Twilight 4:57 AM CST 6:30 PM CST
Moon No Moon Rise 12:50 PM CST (11/7)
Length of Visible Light 11h 39m
Length of Day
10h 49m
Last Quarter, 43% of the Moon is Illuminated
Nov 7
Last Quarter
Nov 13
New
Nov 20
First Quarter
Nov 28
Full
Dec 6
Last Quarter

Hourly Weather History & Observations

Time (CST) Temp. Dew Point Humidity Pressure Visibility Wind Dir Wind Speed Gust Speed Precip Events Conditions
12:55 AM 46.9 °F 43.0 °F 86% 30.09 in 4.0 mi Calm Calm - N/A   Clear
1:55 AM 45.0 °F 42.1 °F 90% 30.09 in 5.0 mi Calm Calm - N/A   Clear
1:59 AM 44.6 °F 41.0 °F 87% 30.09 in 1.8 mi Calm Calm - N/A   Clear
2:07 AM 46.4 °F 42.8 °F 87% 30.09 in 3.0 mi Calm Calm - N/A   Clear
2:16 AM 46.4 °F 42.8 °F 87% 30.09 in 2.0 mi Calm Calm - N/A   Clear
2:55 AM 46.0 °F 42.1 °F 86% 30.08 in 9.0 mi Calm Calm - N/A   Clear
3:52 AM 44.6 °F 41.0 °F 87% 30.07 in 1.5 mi Calm Calm - N/A   Clear
3:55 AM 45.0 °F 41.0 °F 86% 30.07 in 1.0 mi Calm Calm - N/A   Clear
4:55 AM 44.1 °F 41.0 °F 89% 30.08 in 3.0 mi Calm Calm - N/A   Clear
5:55 AM 44.1 °F 39.9 °F 85% 30.09 in 3.0 mi Calm Calm - N/A   Clear
6:13 AM 44.6 °F 39.2 °F 81% 30.09 in 2.5 mi Calm Calm - N/A   Clear
6:23 AM 46.4 °F 41.0 °F 81% 30.10 in 4.0 mi Calm Calm - N/A   Haze
6:55 AM 48.0 °F 44.1 °F 86% 30.11 in 5.0 mi Calm Calm - N/A   Clear
7:55 AM 55.0 °F 50.0 °F 83% 30.12 in 6.0 mi Variable 5.8 mph - N/A   Haze
8:55 AM 61.0 °F 48.9 °F 64% 30.12 in 7.0 mi Calm Calm - N/A   Clear
9:55 AM 64.9 °F 42.1 °F 43% 30.12 in 10.0 mi Variable 5.8 mph - N/A   Clear
10:55 AM 66.0 °F 37.9 °F 36% 30.10 in 10.0 mi Variable 4.6 mph - N/A   Clear
11:55 AM 66.9 °F 36.0 °F 32% 30.08 in 10.0 mi Variable 5.8 mph - N/A   Partly Cloudy
12:55 PM 66.9 °F 36.0 °F 32% 30.06 in 10.0 mi NW 8.1 mph 20.7 mph N/A   Clear
1:55 PM 66.9 °F 37.0 °F 33% 30.04 in 10.0 mi Variable 6.9 mph - N/A   Clear
2:55 PM 68.0 °F 37.0 °F 32% 30.03 in 10.0 mi NNW 6.9 mph - N/A   Clear
3:55 PM 66.9 °F 36.0 °F 32% 30.03 in 10.0 mi WNW 8.1 mph - N/A   Clear
4:55 PM 66.0 °F 35.1 °F 32% 30.04 in 10.0 mi Variable 6.9 mph - N/A   Clear
5:55 PM 55.0 °F 42.1 °F 62% 30.06 in 10.0 mi Calm Calm - N/A   Clear
6:55 PM 51.1 °F 44.1 °F 77% 30.09 in 10.0 mi Calm Calm - N/A   Clear
7:55 PM 50.0 °F 44.1 °F 80% 30.11 in 10.0 mi North 3.5 mph - N/A   Clear
8:55 PM 59.0 °F 39.0 °F 48% 30.13 in 10.0 mi North 4.6 mph - N/A   Clear
9:55 PM 59.0 °F 36.0 °F 42% 30.15 in 10.0 mi NNE 6.9 mph 17.3 mph N/A   Clear
10:55 PM 55.9 °F 37.0 °F 49% 30.17 in 10.0 mi NNE 10.4 mph - N/A   Clear
11:55 PM 51.1 °F 36.0 °F 56% 30.17 in 10.0 mi NE 5.8 mph - N/A   Clear